Location: Unspecified
(0.0000°N, 0.0000°E)
Time: 17:56:16
(UTC+01:00)

ADEOS II - Visible Passes

Search period start: 28 November 2014 00:00
Search period end: 08 December 2014 00:00
Orbit: 801 x 803 km, 98.3° (Epoch: 27 November)

Date Brightness Start Highest point End Pass type
(mag) Time Alt. Az. Time Alt. Az. Time Alt. Az.
28 Nov 4.9 05:39:48 10° NE 05:43:35 20° ESE 05:47:22 10° SSE visible
29 Nov 5.1 19:30:20 10° SW 19:33:53 19° WSW 19:37:26 10° WNW visible
30 Nov 3.9 19:03:06 10° S 19:07:55 37° WSW 19:12:44 10° NW visible
01 Dec 3.8 06:00:19 10° NE 06:05:07 37° ESE 06:09:55 10° SSE visible
02 Dec 5.0 05:35:38 10° ENE 05:39:09 18° ESE 05:42:40 10° SE visible
03 Dec 5.0 19:25:37 10° SSW 19:29:27 21° WSW 19:33:16 10° NW visible
04 Dec 2.5 06:21:27 10° NNE 06:26:39 70° ESE 06:31:53 10° S visible
05 Dec 4.0 05:56:00 10° NE 06:00:40 33° ESE 06:05:21 10° SSE visible
06 Dec 5.1 05:31:31 10° ENE 05:34:42 16° ESE 05:37:54 10° SE visible
06 Dec 5.7 19:49:54 10° WSW 19:50:57 11° WSW 19:52:00 10° W visible
07 Dec 4.9 19:20:56 10° SSW 19:25:00 23° WSW 19:29:03 10° NW visible
